Location: Erdweis
(48.5167°N, 15.3500°E)
Time: 16:57:05
(UTC+00:00)

X-37B - Visible Passes

Search period start: 25 November 2020 00:00
Search period end: 05 December 2020 00:00
Orbit: 384 x 389 km, 45.0° (Epoch: 12 November)

Date Brightness Start Highest point End Pass type
(mag) Time Alt. Az. Time Alt. Az. Time Alt. Az.
28 Nov 2.6 17:10:43 10° SSW 17:12:32 19° S 17:12:32 19° S visible
29 Nov 2.9 16:13:01 10° S 16:14:49 14° SSE 16:16:36 10° ESE visible
29 Nov 3.3 17:47:56 10° WSW 17:48:55 17° SW 17:48:55 17° SW visible
30 Nov 1.9 16:49:39 10° SW 16:52:26 28° SSE 16:52:59 26° SE visible
01 Dec 2.5 15:51:35 10° SSW 15:54:02 21° SSE 15:56:29 10° ESE visible
01 Dec 2.2 17:27:13 10° WSW 17:29:18 32° SW 17:29:18 32° SW visible
02 Dec 1.7 16:28:48 10° WSW 16:31:46 36° SSE 16:33:20 21° ESE visible
02 Dec 3.9 18:05:04 10° WSW 18:05:36 14° WSW 18:05:36 14° WSW visible
03 Dec 1.3 17:06:33 10° WSW 17:09:36 44° S 17:09:39 44° S visible
04 Dec 1.5 16:08:04 10° WSW 16:11:06 42° S 16:13:43 13° ESE visible
04 Dec 3.0 17:44:30 10° W 17:46:00 22° WSW 17:46:00 22° WSW visible
